GW2092 Weather Reports


time (UTC)temp
F
wind
direction
speed
knots
gust
knots
rain 1hr
in
rain 24hr
in
rain mn
in
humidity
%
barometer
mb
20260509120040 51 0 0.0 0.0 0.00 0.01 0.01 97 1011.0
20260509114537 48 0 0.0 0.0 0.00 0.01 0.01 97 1011.0
20260509113039 48 0 0.0 0.0 0.00 0.01 0.01 96 1010.7
20260509111543 48 0 0.0 0.0 0.00 0.01 0.01 96 1010.8
20260509110047 49 0 0.0 0.0 0.00 0.01 0.01 96 1010.8
20260509104559 49 0 0.0 0.0 0.00 0.01 0.01 97 1010.7
20260509103041 49 0 0.0 0.0 0.00 0.01 0.01 97 1010.8
20260509101544 49 0 0.0 0.0 0.00 0.01 0.01 96 1010.7
20260509100037 49 0 0.0 0.0 0.00 0.01 0.01 95 1010.7
20260509094546 50 0 0.0 0.0 0.00 0.01 0.01 96 1010.8
20260509093045 50 0 0.0 0.0 0.00 0.01 0.01 96 1011.0
20260509091544 50 0 0.0 0.0 0.00 0.01 0.01 95 1010.8
20260509090055 50 0 0.0 0.0 0.00 0.01 0.01 95 1011.1
20260509084547 51 0 0.0 0.0 0.01 0.01 0.01 96 1011.2
20260509083047 51 0 0.0 0.0 0.01 0.01 0.01 94 1011.3
20260509081551 51 0 0.0 0.0 0.01 0.01 0.01 94 1011.1
20260509080044 52 0 0.0 0.0 0.01 0.01 0.01 94 1011.1
20260509074540 52 0 0.0 0.0 0.00 0.00 0.00 94 1010.9
20260509073050 52 0 0.0 0.0 0.00 0.00 0.00 94 1011.1
20260509071547 52 0 0.0 0.0 0.00 0.00 0.00 93 1011.0
20260509070053 52 0 0.0 0.0 0.00 0.00 0.00 93 1011.1
20260509064544 52 0 0.0 0.0 0.00 0.00 0.00 92 1011.1
20260509063102 53 0 0.0 0.0 0.00 0.00 0.00 91 1011.2
20260509061613 54 0 0.0 0.0 0.00 0.00 0.00 91 1011.3
20260509060053 53 0 0.0 0.0 0.00 0.00 0.00 90 1011.4
20260509054538 54 0 0.0 0.0 0.00 0.00 0.00 89 1011.4
20260509053045 55 0 0.0 0.0 0.00 0.00 0.00 87 1011.5
20260509051543 56 0 0.0 0.0 0.00 0.00 0.00 87 1011.5
20260509050046 56 0 0.0 0.0 0.00 0.00 0.00 87 1011.5
20260509044541 55 0 0.0 0.0 0.00 0.00 0.00 87 1011.4
20260509043038 56 0 0.0 0.0 0.00 0.00 0.00 84 1011.3
20260509041543 57 0 0.0 0.0 0.00 0.00 0.00 83 1011.4
20260509040048 58 0 0.0 0.0 0.00 0.00 0.00 81 1011.4
20260509034543 59 0 0.0 0.0 0.00 0.00 0.00 79 1011.3
20260509033043 60 0 0.0 0.0 0.00 0.00 0.00 76 1011.1
20260509031542 62 0 0.0 0.9 0.00 0.00 0.00 73 1010.9
20260509030041 62 0 0.0 0.0 0.00 0.00 0.00 71 1010.6
20260509024545 62 0 0.0 3.5 0.00 0.00 0.00 70 1010.5
20260509023043 62 0 0.0 0.9 0.00 0.00 0.00 73 1010.0
20260509021544 61 0 0.0 0.0 0.00 0.00 0.00 75 1009.4
20260509020050 62 0 0.0 0.0 0.00 0.00 0.00 74 1009.0
20260509014546 62 0 0.0 0.0 0.00 0.00 0.00 72 1008.5
20260509013040 63 0 0.0 0.0 0.00 0.00 0.00 74 1008.0
20260509011545 64 0 0.0 0.0 0.00 0.00 0.00 74 1007.8
20260509010046 65 0 0.0 0.9 0.00 0.00 0.00 70 1007.8
20260509004544 65 0 0.0 0.9 0.00 0.00 0.00 69 1008.4
20260509003048 67 0 0.0 3.5 0.00 0.00 0.00 63 1009.0
20260509001544 67 7 0.0 3.5 0.00 0.00 0.00 60 1007.7
20260509000038 67 131 0.0 7.8 0.00 0.00 0.00 66 1007.1
20260508234550 67 0 0.9 3.5 0.00 0.00 0.00 67 1007.4
20260508233047 68 0 0.0 0.9 0.00 0.00 0.00 71 1008.0
20260508231538 70 0 0.0 0.9 0.00 0.00 0.00 66 1009.0
20260508230045 71 0 0.0 0.9 0.00 0.00 0.00 63 1008.3
20260508224543 74 0 0.0 0.9 0.00 0.00 0.00 58 1008.8
20260508223048 75 0 0.0 3.5 0.00 0.00 0.00 52 1009.6
20260508221542 76 0 0.0 3.5 0.00 0.00 0.00 51 1009.6
20260508220050 78 0 0.0 5.2 0.00 0.00 0.00 47 1009.2
20260508214547 80 150 0.0 4.3 0.00 0.00 0.00 46 1008.7
20260508213045 80 0 0.0 1.7 0.00 0.00 0.00 45 1008.9
20260508211539 80 271 0.0 3.5 0.00 0.00 0.00 45 1008.9
20260508210050 80 319 0.0 5.2 0.00 0.00 0.00 44 1009.2
20260508204544 81 191 0.9 7.8 0.00 0.00 0.00 43 1009.2
20260508203108 80 231 0.9 6.1 0.00 0.00 0.00 42 1009.2
20260508201559 80 0 0.9 5.2 0.00 0.00 0.00 43 1009.7
20260508200038 80 0 0.9 5.2 0.00 0.00 0.00 44 1009.9
20260508194545 80 0 0.0 5.2 0.00 0.00 0.00 44 1010.0
20260508193046 79 200 0.0 6.1 0.00 0.00 0.00 46 1010.1
20260508191543 78 228 0.9 5.2 0.00 0.00 0.00 48 1010.4
20260508190041 78 145 0.9 4.3 0.00 0.00 0.00 50 1010.7
20260508184537 77 127 1.7 5.2 0.00 0.00 0.00 47 1010.8
20260508183043 76 148 0.9 5.2 0.00 0.00 0.00 49 1010.9
20260508181554 75 98 0.0 6.1 0.00 0.00 0.00 50 1010.9
20260508180046 76 212 1.7 7.0 0.00 0.00 0.00 47 1011.1
20260508174551 76 84 0.9 8.7 0.00 0.00 0.00 51 1011.4
20260508173043 76 177 0.9 6.1 0.00 0.00 0.00 54 1011.8
20260508171545 75 215 0.0 5.2 0.00 0.00 0.00 53 1012.0
20260508170045 74 154 2.6 6.1 0.00 0.00 0.00 53 1012.4
20260508164544 73 186 2.6 7.8 0.00 0.00 0.00 54 1012.8
20260508163046 73 295 1.7 7.8 0.00 0.00 0.00 55 1013.1
20260508161539 72 158 1.7 7.8 0.00 0.00 0.00 57 1013.3
20260508160049 71 0 2.6 9.6 0.00 0.00 0.00 60 1013.2
20260508154544 70 238 0.9 7.0 0.00 0.00 0.00 62 1013.6
20260508153052 69 157 1.7 6.1 0.00 0.00 0.00 63 1013.6
20260508151545 69 0 0.0 5.2 0.00 0.00 0.00 67 1013.7
20260508150052 68 181 1.7 8.7 0.00 0.00 0.00 64 1013.9
20260508144545 67 172 0.9 5.2 0.00 0.00 0.00 66 1014.1
20260508143045 67 226 0.0 5.2 0.00 0.00 0.00 68 1014.1
20260508141606 66 76 0.0 3.5 0.00 0.00 0.00 69 1014.3
20260508140039 65 0 0.0 5.2 0.00 0.00 0.00 69 1014.4
20260508134555 65 174 0.0 3.5 0.00 0.00 0.00 71 1014.4
20260508133044 62 0 0.0 4.3 0.00 0.00 0.00 73 1014.3
20260508131543 60 165 0.0 4.3 0.00 0.00 0.00 75 1014.2
20260508130040 59 0 0.0 3.5 0.00 0.00 0.00 75 1014.0
20260508124539 57 165 0.0 4.3 0.00 0.00 0.00 77 1014.0
20260508123049 55 193 0.9 5.2 0.00 0.00 0.00 78 1014.0
20260508121545 53 0 0.0 2.6 0.00 0.00 0.00 80 1014.0